Showing default

COSMOS 2506, 40699

Orbit data source: Space-Track

COSMOS 2506, 40699 is a payload satellite owned by VVKO VKS (CIS) in SSO that was launched on Tue, 23 Jun 2015 UTC via a SOYUZ-2-1B launch vehicle from the Plesetsk Missile And Space Complex (PKMTR). Payload-class satellites include a variety of spacecraft equipped with specific instruments for various scientific and technological missions. These include communications satellites like Starlink; space stations such as the ISS; scientific satellites like the Hubble; Earth observation satellites from companies like Planet Labs, Umbra, and HawkEye 360; GPS; miniature CubeSats for education and research; and military/defense satellites.

Loading next visibility...
Identifier
40699, 2015-029A
Orbit
SSO
Country
Flag of CISCIS
Related business
Manufacturer
TsSKB-Progress
Mission
Operational Defense Imaging
Bus & Motor
PERSONA-1, 11D428
Mass
~7,000 kg wet, ~7,000 kg dry
Launch date (UTC)
2015-06-23 (10 years ago)
Launch vehicle
SOYUZ-2-1B
Launch site
Plesetsk Missile And Space Complex (PKMTR)
Object type
Payload
Rocket body
Debris
Shape & HBR
Cyl + 2 Pan, 3.1 m
Radar Cross Section
16.222 m², Large (>1 m²)

Expand to show TLE details & history
Last TLE update: 20 hours ago

TLE from 20 hours ago
0 COSMOS 2506
1 40699U 15029A   25261.33646856  .00000134  00000-0  41812-4 0  9990
2 40699  98.0891 306.8740 0005926 280.4641  79.5888 14.54239566543372
Epoch: 2025-09-18T08:04Z
TLE epoch observation values (Epoch: 2025-09-18T08:04:30.883Z)
Latitude
-0.00007°
Longitude
-171.75419°
Altitude
714.059 km
Speed
7.499 km/s
True Right ascension
20h 27m 29s
True Declination
0° 00' 00"
Sunlit
Object was in full shadow at epoch
Visualization orbit readout
Latitude
Unknown
Longitude
Unknown
Altitude
Unknown
Speed
Unknown
Apparent Right ascension
Unknown
Apparent Declination
Unknown
Sunlit
N/A
Visualization observer readout
Local Sidereal Time
20:51:32
Azimuth
Unknown
Elevation
Unknown
Doppler factor
Unknown
Orbital elements
Apogee altitude
713.119 km
Perigee altitude
704.719 km
Semi-major axis
7,087.056 km
Eccentricity
0.00059
Inclination
98.0891°
RAAN
306.874°
Arg. of periapsis
280.4641°
True anomaly
79.6556°
Mean anomaly
79.5888°
Eccentric anomaly
79.6222°
Mean motion
3.63785 °/min
Orbital period
98.96 mins
BSTAR
0.000041812
Loading maneuver chart data...
Computing Atmospheric mass density...
Loading historical data...
Loading historical data...
Loading historical data...
Loading historical data...
Loading historical data...
Loading historical data...
Loading historical data...
Other satellites on launch #29 in the year 2015 (2015-06-23 UTC)

Documentation

Showing up to 5 results
|